TimeAKDT,TemperatureF,Dew PointF,Humidity,Sea Level PressureIn,VisibilityMPH,Wind Direction,Wind SpeedMPH,Gust SpeedMPH,PrecipitationIn,Events,Conditions,WindDirDegrees,DateUTC
12:01 AM,15.1,12.9,91,30.41,10.0,NW,5.8,-,N/A,,Clear,320,2012-10-28 08:01:00
1:01 AM,16.0,14.0,92,30.42,10.0,North,4.6,-,N/A,,Clear,10,2012-10-28 09:01:00
2:01 AM,16.0,15.1,96,30.42,10.0,NE,4.6,-,N/A,,Clear,50,2012-10-28 10:01:00
3:01 AM,16.0,15.1,96,30.42,10.0,Calm,Calm,-,N/A,,Clear,0,2012-10-28 11:01:00
4:01 AM,16.0,14.0,92,30.43,10.0,North,4.6,-,N/A,,Clear,350,2012-10-28 12:01:00
5:01 AM,18.0,17.1,96,30.43,10.0,NE,5.8,-,N/A,,Clear,40,2012-10-28 13:01:00
6:01 AM,19.9,18.0,92,30.44,10.0,Calm,Calm,-,N/A,,Overcast,0,2012-10-28 14:01:00
7:01 AM,17.1,15.1,92,30.44,10.0,Calm,Calm,-,N/A,,Overcast,0,2012-10-28 15:01:00
8:01 AM,19.0,18.0,96,30.43,10.0,NE,6.9,-,N/A,,Clear,40,2012-10-28 16:01:00
9:01 AM,19.0,17.1,92,30.44,10.0,Calm,Calm,-,N/A,,Partly Cloudy,0,2012-10-28 17:01:00
10:01 AM,18.0,16.0,92,30.44,10.0,North,3.5,-,N/A,,Clear,360,2012-10-28 18:01:00
11:01 AM,19.0,18.0,96,30.44,10.0,NW,3.5,-,N/A,,Mostly Cloudy,320,2012-10-28 19:01:00
12:01 PM,19.9,18.0,92,30.43,10.0,Calm,Calm,-,N/A,,Partly Cloudy,0,2012-10-28 20:01:00
1:01 PM,23.0,21.9,96,30.42,10.0,Calm,Calm,-,N/A,,Clear,0,2012-10-28 21:01:00
2:01 PM,27.0,26.1,96,30.40,6.0,NNW,6.9,-,N/A,,Partly Cloudy,330,2012-10-28 22:01:00
3:01 PM,26.1,25.0,96,30.41,10.0,Calm,Calm,-,N/A,,Overcast,0,2012-10-28 23:01:00
4:01 PM,26.1,25.0,96,30.40,10.0,SSW,5.8,-,N/A,,Overcast,210,2012-10-29 00:01:00
5:01 PM,27.0,25.0,92,30.38,10.0,Calm,Calm,-,N/A,,Overcast,0,2012-10-29 01:01:00
6:01 PM,27.0,25.0,92,30.36,10.0,Calm,Calm,-,N/A,,Overcast,0,2012-10-29 02:01:00
7:01 PM,26.1,25.0,96,30.35,10.0,Calm,Calm,-,N/A,,Mostly Cloudy,0,2012-10-29 03:01:00
8:01 PM,26.1,24.1,92,30.33,10.0,Calm,Calm,-,N/A,,Mostly Cloudy,0,2012-10-29 04:01:00
9:01 PM,25.0,24.1,96,30.32,10.0,SSW,3.5,-,N/A,,Overcast,210,2012-10-29 05:01:00
10:01 PM,28.4,26.6,93,30.17,3.0,WSW,9.2,-,N/A,Snow,Light Snow,250,2012-10-29 06:01:00
10:18 PM,28.0,26.1,92,30.30,3.0,South,6.9,-,N/A,Snow,Light Snow,190,2012-10-29 06:18:00
10:39 PM,26.6,24.8,93,30.16,2.5,SSW,5.8,-,N/A,Snow,Light Snow,200,2012-10-29 06:39:00
10:46 PM,26.6,24.8,93,30.16,3.0,SSW,4.6,-,N/A,Snow,Light Snow,200,2012-10-29 06:46:00
11:01 PM,26.1,25.0,96,30.29,3.0,SW,4.6,-,N/A,Snow,Light Snow,230,2012-10-29 07:01:00